Time,TemperatureF,DewpointF,PressureIn,WindDirection,WindDirectionDegrees,WindSpeedMPH,WindSpeedGustMPH,Humidity,HourlyPrecipIn,Conditions,Clouds,dailyrainin,SoftwareType,DateUTC
2013-06-07 00:00:00,55.0,23.0,-100.00,North,-999,-999.0,-999.0,29,-99.99,,,-99.99,,2013-06-07 07:00:00,
2013-06-07 00:52:00,55.0,23.0,-100.00,North,-999,-999.0,-999.0,29,-99.99,,,-99.99,,2013-06-07 07:52:00,
2013-06-07 01:00:00,57.0,26.0,-100.00,NW,305,1.0,4.0,30,-99.99,,,0.00,,2013-06-07 08:00:00,
2013-06-07 01:52:00,57.0,26.0,-100.00,NW,305,1.0,4.0,30,-99.99,,,0.00,,2013-06-07 08:52:00,
2013-06-07 02:00:00,55.0,25.0,-100.00,WNW,287,4.0,7.0,31,-99.99,,,0.00,,2013-06-07 09:00:00,
2013-06-07 02:53:00,55.0,25.0,-100.00,WNW,287,4.0,7.0,31,-99.99,,,0.00,,2013-06-07 09:53:00,
2013-06-07 03:00:00,55.0,29.0,-100.00,WNW,284,4.0,7.0,37,-99.99,,,0.00,,2013-06-07 10:00:00,
2013-06-07 03:53:00,55.0,29.0,-100.00,WNW,284,4.0,7.0,37,-99.99,,,0.00,,2013-06-07 10:53:00,
2013-06-07 04:00:00,53.0,31.0,-100.00,West,276,4.0,9.0,43,-99.99,,,0.00,,2013-06-07 11:00:00,
2013-06-07 04:52:00,53.0,31.0,-100.00,West,276,4.0,9.0,43,-99.99,,,0.00,,2013-06-07 11:52:00,
2013-06-07 05:00:00,53.0,33.0,-100.00,North,7,3.0,6.0,47,-99.99,,,0.00,,2013-06-07 12:00:00,
2013-06-07 05:52:00,53.0,33.0,-100.00,North,7,3.0,6.0,47,-99.99,,,0.00,,2013-06-07 12:52:00,
2013-06-07 06:00:00,54.0,36.0,-100.00,West,267,4.0,8.0,51,-99.99,,,0.00,,2013-06-07 13:00:00,
2013-06-07 06:52:00,54.0,36.0,-100.00,West,267,4.0,8.0,51,-99.99,,,0.00,,2013-06-07 13:52:00,
2013-06-07 07:00:00,54.0,38.0,-100.00,West,272,4.0,9.0,55,-99.99,,,0.00,,2013-06-07 14:00:00,
2013-06-07 07:52:00,54.0,38.0,-100.00,West,272,4.0,9.0,55,-99.99,,,0.00,,2013-06-07 14:52:00,
2013-06-07 08:00:00,53.0,40.0,-100.00,SE,126,3.0,6.0,62,-99.99,,,0.00,,2013-06-07 15:00:00,
2013-06-07 08:53:00,53.0,40.0,-100.00,SE,126,3.0,6.0,62,-99.99,,,0.00,,2013-06-07 15:53:00,
2013-06-07 09:00:00,53.0,42.0,-100.00,South,182,2.0,6.0,67,-99.99,,,0.00,,2013-06-07 16:00:00,
2013-06-07 09:53:00,53.0,42.0,-100.00,South,182,2.0,6.0,67,-99.99,,,0.00,,2013-06-07 16:53:00,
2013-06-07 10:00:00,54.0,44.0,-100.00,South,191,3.0,6.0,69,-99.99,,,0.00,,2013-06-07 17:00:00,
2013-06-07 10:52:00,54.0,44.0,-100.00,South,191,3.0,6.0,69,-99.99,,,0.00,,2013-06-07 17:52:00,
2013-06-07 11:00:00,57.0,45.0,-100.00,SSW,209,4.0,7.0,65,-99.99,,,0.00,,2013-06-07 18:00:00,
2013-06-07 11:58:00,57.0,45.0,-100.00,SSW,209,4.0,7.0,65,-99.99,,,0.00,,2013-06-07 18:58:00,
2013-06-07 12:00:00,57.0,45.0,-100.00,WNW,294,5.0,8.0,63,-99.99,,,0.00,,2013-06-07 19:00:00,
2013-06-07 12:57:00,57.0,45.0,-100.00,WNW,294,5.0,8.0,63,-99.99,,,0.00,,2013-06-07 19:57:00,
2013-06-07 13:00:00,58.0,46.0,-100.00,SW,234,6.0,10.0,64,-99.99,,,0.00,,2013-06-07 20:00:00,
2013-06-07 13:57:00,58.0,46.0,-100.00,SW,234,6.0,10.0,64,-99.99,,,0.00,,2013-06-07 20:57:00,
2013-06-07 14:00:00,57.0,46.0,-100.00,WSW,250,7.0,12.0,66,-99.99,,,0.00,,2013-06-07 21:00:00,
2013-06-07 15:00:00,58.0,44.0,-100.00,WSW,250,7.0,15.0,59,-99.99,,,0.00,,2013-06-07 22:00:00,
2013-06-07 15:49:00,58.0,44.0,-100.00,WSW,250,7.0,15.0,59,-99.99,,,0.00,,2013-06-07 22:49:00,
2013-06-07 15:59:00,58.0,44.0,-100.00,WSW,250,7.0,15.0,59,-99.99,,,0.00,,2013-06-07 22:59:00,
2013-06-07 16:00:00,58.0,39.0,-100.00,SW,217,8.0,12.0,49,-99.99,,,0.00,,2013-06-07 23:00:00,
2013-06-07 16:54:00,58.0,39.0,-100.00,SW,217,8.0,12.0,49,-99.99,,,0.00,,2013-06-07 23:54:00,
2013-06-07 17:00:00,57.0,33.0,-100.00,WSW,256,7.0,11.0,40,-99.99,,,0.00,,2013-06-08 00:00:00,
2013-06-07 17:47:00,57.0,33.0,-100.00,WSW,256,7.0,11.0,40,-99.99,,,0.00,,2013-06-08 00:47:00,
2013-06-07 17:58:00,57.0,33.0,-100.00,WSW,256,7.0,11.0,40,-99.99,,,0.00,,2013-06-08 00:58:00,
2013-06-07 18:48:00,55.0,31.0,-100.00,SW,219,5.0,8.0,39,-99.99,,,0.00,,2013-06-08 01:48:00,
2013-06-07 18:59:00,55.0,31.0,-100.00,SW,219,5.0,8.0,39,-99.99,,,0.00,,2013-06-08 01:59:00,
2013-06-07 19:00:00,54.0,30.0,-100.00,West,278,3.0,7.0,39,-99.99,,,0.00,,2013-06-08 02:00:00,
2013-06-07 19:59:00,54.0,30.0,-100.00,West,278,3.0,7.0,39,-99.99,,,0.00,,2013-06-08 02:59:00,
2013-06-07 20:00:00,50.0,32.0,-100.00,SW,229,3.0,6.0,49,-99.99,,,0.00,,2013-06-08 03:00:00,
2013-06-07 21:00:00,48.0,32.0,-100.00,West,271,2.0,6.0,53,-99.99,,,0.00,,2013-06-08 04:00:00,
2013-06-07 21:53:00,48.0,32.0,-100.00,West,271,2.0,6.0,53,-99.99,,,0.00,,2013-06-08 04:53:00,
2013-06-07 22:00:00,46.0,31.0,-100.00,SSE,148,1.0,4.0,56,-99.99,,,-99.99,,2013-06-08 05:00:00,
2013-06-07 22:52:00,46.0,31.0,-100.00,SSE,148,1.0,4.0,56,-99.99,,,-99.99,,2013-06-08 05:52:00,
2013-06-07 23:00:00,44.0,33.0,-100.00,SSW,201,2.0,4.0,65,-99.99,,,-99.99,,2013-06-08 06:00:00,
2013-06-07 23:42:00,44.0,33.0,-100.00,SSW,201,2.0,4.0,65,-99.99,,,-99.99,,2013-06-08 06:42:00,
2013-06-07 23:52:00,44.0,33.0,-100.00,SSW,201,2.0,4.0,65,-99.99,,,-99.99,,2013-06-08 06:52:00,